QPF
0.00 0.00 0.00 0.00 0.00 0.00 0.00 0.00 0.00 0.00 0.00 0.00 0.00 0.00 0.00 0.00 0.01 0.06 0.03 0.02 0.04 0.04 0.03 0.01 0.05 0.17 0.13 0.06 0.00 0.00 0.00 0.00 0.00 0.00 0.00 0.00 0.00 0.01 0.01 0.00 0.00 0.00 0.00
0.00 0.00 0.00 0.00 0.00 0.00 0.00 0.00 0.00 0.00 0.00 0.00 0.00 0.00 0.00 0.01 0.06 0.04 0.00 0.00 0.01 0.00 0.02 0.01 0.03 0.10 0.12 0.10 0.02 0.02 0.00 0.00 0.00 0.00 0.00 0.00 0.00 0.00 0.00 0.00 0.00 0.00 0.00
0.00 0.00 0.00 0.00 0.00 0.00 0.00 0.00 0.00 0.00 0.00 0.00 0.00 0.00 0.01 0.07 0.10 0.02 0.00 0.00 0.00 0.00 0.03 0.04 0.05 0.06 0.09 0.06 0.05 0.06 0.03 0.02 0.00 0.00 0.00 0.00 0.00 0.00 0.00 0.00 0.00 0.00 0.00
0.00 0.00 0.00 0.00 0.00 0.00 0.00 0.00 0.00 0.00 0.00 0.00 0.00 0.00 0.00 0.02 0.07 0.09 0.07 0.04 0.06 0.08 0.10 0.05 0.02 0.03 0.06 0.07 0.03 0.03 0.06 0.02 0.01 0.01 0.01 0.00 0.00 0.01 0.00 0.01 0.06 0.03 0.00
0.00 0.00 0.00 0.00 0.00 0.00 0.00 0.00 0.00 0.00 0.00 0.00 0.00 0.00 0.00 0.00 0.02 0.04 0.05 0.02 0.04 0.09 0.15 0.07 0.03 0.05 0.13 0.12 0.04 0.05 0.05 0.05 0.01 0.01 0.03 0.04 0.01 0.01 0.02 0.06 0.09 0.09 0.02
0.00 0.00 0.00 0.00 0.00 0.00 0.00 0.00 0.00 0.00 0.00 0.00 0.00 0.00 0.00 0.00 0.00 0.00 0.00 0.00 0.00 0.01 0.05 0.06 0.02 0.03 0.04 0.04 0.04 0.02 0.01 0.00 0.01 0.01 0.03 0.04 0.03 0.01 0.05 0.06 0.06 0.06 0.03
0.00 0.00 0.00 0.00 0.00 0.00 0.00 0.00 0.00 0.00 0.00 0.00 0.00 0.00 0.00 0.00 0.00 0.00 0.00 0.00 0.00 0.00 0.00 0.00 0.00 0.00 0.00 0.00 0.01 0.03 0.00 0.00 0.00 0.04 0.04 0.05 0.03 0.04 0.05 0.03 0.02 0.04 0.02
0.00 0.00 0.00 0.00 0.00 0.00 0.00 0.00 0.00 0.00 0.00 0.00 0.00 0.00 0.00 0.00 0.00 0.00 0.00 0.00 0.00 0.00 0.00 0.00 0.00 0.00 0.00 0.00 0.00 0.01 0.00 0.01 0.03 0.00 0.00 0.02 0.02 0.09 0.07 0.04 0.02 0.01 0.01
0.00 0.00 0.01 0.00 0.00 0.00 0.00 0.00 0.00 0.00 0.00 0.00 0.00 0.00 0.00 0.00 0.00 0.00 0.00 0.00 0.00 0.00 0.00 0.00 0.00 0.00 0.00 0.00 0.00 0.00 0.00 0.00 0.01 0.00 0.00 0.00 0.01 0.08 0.09 0.02 0.07 0.03 0.01
0.00 0.00 0.00 0.00 0.00 0.00 0.00 0.00 0.00 0.00 0.00 0.00 0.00 0.00 0.00 0.00 0.00 0.00 0.00 0.00 0.00 0.00 0.00 0.00 0.00 0.00 0.00 0.00 0.00 0.00 0.00 0.00 0.00 0.00 0.00 0.00 0.00 0.00 0.03 0.02 0.01 0.03 0.03
0.00 0.00 0.00 0.00 0.00 0.00 0.00 0.00 0.00 0.00 0.00 0.00 0.00 0.00 0.00 0.00 0.00 0.00 0.00 0.00 0.00 0.00 0.00 0.00 0.00 0.00 0.00 0.00 0.00 0.00 0.00 0.00 0.00 0.00 0.00 0.00 0.00 0.00 0.00 0.00 0.00 0.00 0.01
0.00 0.00 0.00 0.00 0.00 0.00 0.00 0.00 0.00 0.00 0.00 0.00 0.00 0.00 0.00 0.00 0.00 0.00 0.00 0.00 0.00 0.00 0.00 0.00 0.00 0.00 0.00 0.00 0.00 0.00 0.00 0.00 0.00 0.00 0.00 0.00 0.00 0.00 0.00 0.00 0.00 0.00 0.00
0.00 0.00 0.00 0.00 0.00 0.00 0.00 0.00 0.00 0.00 0.00 0.00 0.00 0.00 0.00 0.00 0.00 0.00 0.00 0.00 0.00 0.00 0.00 0.00 0.00 0.00 0.00 0.00 0.00 0.00 0.00 0.00 0.00 0.00 0.00 0.00 0.00 0.00 0.00 0.00 0.00 0.00 0.00
0.00 0.00 0.00 0.00 0.00 0.00 0.00 0.00 0.00 0.00 0.00 0.00 0.00 0.00 0.00 0.00 0.00 0.00 0.00 0.00 0.00 0.00 0.00 0.00 0.00 0.00 0.00 0.00 0.00 0.00 0.00 0.00 0.00 0.00 0.00 0.00 0.00 0.00 0.00 0.00 0.00 0.00 0.00
0.00 0.00 0.00 0.00 0.00 0.00 0.00 0.00 0.00 0.00 0.00 0.00 0.00 0.00 0.00 0.00 0.00 0.00 0.00 0.00 0.00 0.00 0.00 0.00 0.00 0.00 0.00 0.00 0.00 0.00 0.00 0.00 0.00 0.00 0.00 0.00 0.00 0.00 0.00 0.00 0.00 0.00 0.00
0.00 0.00 0.00 0.00 0.00 0.00 0.00 0.00 0.00 0.00 0.00 0.00 0.00 0.00 0.00 0.00 0.00 0.00 0.00 0.00 0.00 0.00 0.00 0.00 0.00 0.00 0.00 0.00 0.00 0.00 0.00 0.00 0.00 0.00 0.00 0.00 0.00 0.00 0.00 0.00 0.00 0.00 0.00
0.00 0.00 0.00 0.00 0.00 0.00 0.00 0.00 0.00 0.00 0.00 0.00 0.00 0.00 0.00 0.00 0.00 0.00 0.00 0.00 0.00 0.00 0.00 0.01 0.01 0.00 0.00 0.00 0.00 0.00 0.00 0.00 0.00 0.00 0.00 0.00 0.00 0.00 0.00 0.00 0.00 0.00 0.00
0.00 0.00 0.00 0.00 0.00 0.00 0.00 0.00 0.00 0.00 0.00 0.00 0.00 0.00 0.00 0.00 0.00 0.00 0.00 0.00 0.00 0.00 0.00 0.00 0.00 0.00 0.00 0.00 0.00 0.00 0.00 0.00 0.00 0.00 0.01 0.00 0.00 0.00 0.00 0.00 0.00 0.00 0.00
0.00 0.00 0.00 0.00 0.00 0.00 0.00 0.00 0.00 0.00 0.00 0.00 0.00 0.00 0.00 0.00 0.00 0.00 0.00 0.00 0.00 0.00 0.00 0.00 0.00 0.00 0.00 0.00 0.00 0.00 0.00 0.00 0.00 0.01 0.02 0.01 0.01 0.01 0.00 0.00 0.00 0.00 0.01
0.00 0.00 0.00 0.00 0.00 0.00 0.00 0.00 0.00 0.00 0.00 0.00 0.00 0.00 0.00 0.00 0.00 0.00 0.00 0.00 0.00 0.01 0.01 0.00 0.00 0.00 0.01 0.01 0.01 0.01 0.01 0.01 0.00 0.00 0.01 0.01 0.00 0.01 0.00 0.00 0.00 0.01 0.01
0.00 0.00 0.00 0.00 0.00 0.00 0.00 0.00 0.00 0.00 0.00 0.00 0.00 0.00 0.00 0.00 0.00 0.00 0.00 0.00 0.00 0.00 0.01 0.01 0.01 0.01 0.01 0.01 0.01 0.02 0.03 0.03 0.02 0.01 0.01 0.01 0.01 0.00 0.00 0.00 0.00 0.01 0.02
0.00 0.00 0.00 0.00 0.00 0.00 0.00 0.00 0.00 0.00 0.00 0.00 0.00 0.00 0.00 0.00 0.00 0.00 0.00 0.00 0.00 0.00 0.00 0.00 0.00 0.00 0.00 0.00 0.01 0.01 0.01 0.01 0.02 0.03 0.02 0.01 0.01 0.01 0.01 0.01 0.01 0.01 0.01
0.00 0.00 0.00 0.00 0.00 0.00 0.00 0.00 0.00 0.00 0.00 0.00 0.00 0.00 0.00 0.00 0.00 0.00 0.00 0.00 0.00 0.00 0.00 0.00 0.00 0.00 0.00 0.00 0.00 0.00 0.00 0.00 0.01 0.01 0.01 0.01 0.01 0.01 0.01 0.01 0.02 0.02 0.02
0.00 0.00 0.00 0.00 0.00 0.00 0.00 0.00 0.00 0.00 0.00 0.00 0.00 0.00 0.00 0.00 0.00 0.00 0.00 0.00 0.00 0.00 0.00 0.00 0.00 0.00 0.00 0.00 0.00 0.00 0.00 0.00 0.00 0.00 0.00 0.00 0.00 0.00 0.01 0.02 0.03 0.03 0.02
0.00 0.00 0.00 0.00 0.00 0.00 0.00 0.00 0.00 0.00 0.00 0.00 0.00 0.00 0.00 0.00 0.00 0.00 0.00 0.00 0.00 0.00 0.00 0.00 0.00 0.00 0.00 0.00 0.00 0.00 0.00 0.00 0.00 0.00 0.00 0.00 0.00 0.00 0.00 0.01 0.02 0.03 0.03
0.00 0.00 0.00 0.00 0.00 0.00 0.00 0.00 0.00 0.00 0.00 0.00 0.00 0.00 0.00 0.00 0.00 0.00 0.00 0.00 0.00 0.00 0.00 0.00 0.00 0.00 0.00 0.00 0.00 0.00 0.00 0.00 0.00 0.00 0.00 0.00 0.00 0.00 0.00 0.00 0.01 0.03 0.03
MSLP
1013.95 1014.31 1014.57 1014.50 1014.58 1014.72 1014.60 1014.46 1014.28 1014.03 1013.74 1013.35 1013.09 1012.84 1012.72 1012.72 1012.71 1012.72 1012.57 1012.42 1012.12 1011.88 1011.63 1011.56 1011.33 1011.39 1011.38 1011.46 1011.44 1011.60 1011.56 1011.53 1011.00 1010.70 1010.73 1011.01 1011.07 1010.91 1010.58 1010.71 1010.75 1010.84 1010.60
1013.73 1013.99 1014.27 1014.48 1014.52 1014.40 1014.27 1014.05 1013.83 1013.58 1013.32 1013.05 1012.73 1012.51 1012.33 1012.30 1012.31 1012.13 1012.16 1011.93 1011.82 1011.71 1011.58 1011.14 1011.17 1011.04 1011.01 1011.18 1010.95 1011.15 1011.19 1011.04 1010.91 1010.59 1010.66 1010.49 1010.58 1010.38 1010.40 1010.31 1010.11 1009.79 1009.80
1013.65 1013.64 1013.87 1014.08 1014.12 1013.94 1013.92 1013.83 1013.59 1013.36 1013.16 1012.94 1012.71 1012.42 1012.07 1011.83 1011.67 1011.70 1011.68 1011.62 1011.63 1011.30 1011.13 1011.13 1011.31 1010.92 1010.98 1010.76 1011.03 1010.92 1010.74 1010.91 1010.88 1010.74 1010.26 1010.46 1009.88 1009.93 1009.89 1010.04 1009.84 1009.66 1009.40
1013.78 1013.69 1013.61 1013.55 1013.67 1013.73 1013.56 1013.38 1013.27 1013.11 1012.92 1012.82 1012.67 1012.40 1012.11 1011.77 1011.42 1011.21 1011.29 1011.05 1010.77 1010.70 1010.66 1010.56 1010.36 1010.62 1010.75 1010.48 1010.28 1010.46 1010.21 1010.26 1010.46 1010.47 1010.20 1010.10 1009.88 1009.67 1009.53 1009.33 1009.46 1009.30 1009.11
1013.71 1013.68 1013.41 1013.34 1013.25 1013.23 1013.25 1013.44 1013.41 1013.18 1012.96 1012.81 1012.61 1012.37 1012.21 1011.84 1011.49 1011.53 1011.18 1010.90 1010.71 1010.45 1010.29 1010.09 1010.03 1010.11 1010.07 1010.06 1009.89 1009.91 1009.81 1009.68 1009.85 1009.55 1009.45 1009.47 1009.08 1009.14 1008.90 1008.92 1009.06 1009.01 1008.87
1013.71 1013.76 1013.79 1013.64 1013.40 1013.18 1013.20 1013.01 1013.11 1013.05 1012.85 1012.66 1012.41 1012.28 1012.05 1011.71 1011.65 1011.44 1011.43 1010.77 1010.48 1010.26 1009.83 1009.56 1009.42 1009.42 1009.35 1009.17 1009.31 1009.32 1009.17 1008.99 1009.06 1009.17 1009.15 1009.05 1008.86 1008.95 1008.96 1008.85 1008.78 1008.75 1008.55
1013.67 1013.69 1013.65 1013.75 1013.44 1012.93 1013.02 1012.94 1012.86 1012.91 1012.86 1012.54 1012.31 1012.10 1011.86 1011.73 1011.59 1011.31 1011.16 1010.59 1010.17 1009.89 1009.58 1009.18 1008.84 1008.63 1008.82 1008.70 1008.67 1008.53 1008.53 1008.50 1008.59 1008.64 1008.59 1008.60 1008.51 1008.44 1008.60 1008.60 1008.30 1008.32 1008.02
1013.39 1013.46 1013.27 1012.92 1013.00 1012.86 1012.81 1012.94 1012.93 1012.91 1012.84 1012.70 1012.35 1012.05 1011.67 1011.45 1011.50 1011.39 1011.01 1010.36 1009.88 1009.39 1009.08 1008.86 1008.69 1008.47 1008.35 1008.24 1008.03 1007.85 1007.65 1007.54 1007.88 1008.15 1008.25 1008.01 1008.06 1008.17 1008.36 1008.33 1008.30 1008.16 1007.89
1013.06 1013.05 1013.04 1012.90 1012.90 1013.02 1013.00 1013.01 1012.96 1012.88 1012.61 1012.47 1012.29 1011.95 1011.59 1011.32 1011.31 1011.19 1011.03 1010.21 1009.55 1009.06 1008.61 1008.35 1008.14 1007.89 1007.73 1007.92 1007.78 1007.44 1007.35 1007.19 1007.25 1007.45 1007.62 1007.64 1007.76 1007.85 1008.05 1008.15 1008.02 1007.95 1007.16
1013.19 1013.24 1013.19 1013.28 1013.36 1013.30 1013.27 1013.12 1013.03 1012.86 1012.73 1012.47 1011.98 1011.84 1011.46 1011.26 1011.08 1011.04 1010.84 1010.08 1009.37 1008.85 1008.34 1007.99 1007.89 1007.92 1007.68 1007.81 1007.71 1007.31 1007.00 1006.79 1006.83 1006.95 1007.18 1007.28 1007.37 1007.28 1007.45 1007.53 1007.34 1007.30 1007.21
1013.77 1013.83 1013.86 1013.95 1013.91 1013.82 1013.67 1013.42 1013.28 1012.96 1012.66 1012.45 1011.81 1011.62 1011.37 1010.95 1010.82 1010.83 1010.56 1010.39 1009.71 1009.06 1008.27 1007.61 1007.36 1007.76 1007.75 1007.77 1007.77 1007.20 1006.89 1006.75 1006.91 1007.04 1006.88 1006.73 1006.61 1006.53 1006.52 1006.93 1006.86 1006.77 1006.68
1014.61 1014.57 1014.57 1014.67 1014.44 1014.08 1014.04 1013.73 1013.53 1013.04 1012.60 1012.06 1011.68 1011.26 1010.68 1010.58 1010.66 1010.40 1010.38 1010.33 1010.18 1009.36 1008.43 1007.78 1007.64 1007.92 1007.83 1007.59 1007.54 1007.04 1007.07 1007.13 1006.86 1006.73 1006.59 1006.22 1005.96 1005.83 1006.00 1006.24 1006.33 1006.27 1006.09
1015.23 1015.08 1014.96 1014.83 1014.67 1014.62 1014.31 1013.89 1013.37 1013.16 1012.88 1012.29 1011.78 1011.25 1010.84 1010.55 1010.46 1010.22 1009.96 1009.95 1009.85 1009.36 1008.56 1008.16 1008.03 1007.65 1007.46 1007.14 1006.99 1007.10 1007.19 1006.53 1006.11 1006.06 1005.82 1005.53 1005.42 1005.48 1005.80 1005.85 1005.89 1005.91 1005.88
1015.44 1015.36 1015.20 1015.11 1015.34 1014.85 1014.34 1014.17 1013.86 1013.51 1013.23 1012.95 1012.64 1012.07 1011.37 1010.84 1010.27 1009.98 1009.94 1009.93 1009.43 1008.85 1008.32 1007.76 1007.47 1007.18 1006.83 1006.60 1006.55 1006.19 1006.28 1005.84 1005.61 1005.32 1005.00 1004.92 1004.94 1005.36 1005.25 1005.17 1005.05 1005.02 1005.17
1016.25 1015.94 1015.76 1015.51 1015.24 1014.49 1014.60 1014.72 1014.43 1014.21 1014.30 1013.96 1013.40 1012.82 1012.09 1011.41 1011.28 1011.44 1011.29 1010.68 1009.91 1009.29 1009.23 1007.65 1006.56 1005.85 1005.41 1005.20 1004.94 1004.99 1004.96 1005.27 1005.27 1004.83 1004.59 1004.48 1004.47 1004.51 1004.43 1004.41 1004.86 1004.99 1004.86
1016.17 1016.13 1016.12 1015.76 1015.33 1015.20 1014.83 1014.47 1014.43 1014.40 1014.23 1013.92 1013.54 1013.29 1012.56 1012.02 1011.57 1011.40 1010.99 1010.28 1009.66 1009.33 1008.42 1007.12 1006.14 1005.73 1005.28 1004.95 1004.75 1004.56 1004.37 1004.34 1004.30 1004.10 1003.96 1003.81 1003.66 1003.56 1003.54 1003.70 1004.06 1004.17 1003.64
1016.86 1016.76 1016.29 1016.14 1015.82 1015.45 1015.04 1014.73 1014.15 1013.73 1013.58 1013.43 1013.30 1012.95 1012.53 1012.09 1011.70 1011.32 1010.63 1009.76 1008.91 1008.80 1007.84 1006.56 1006.26 1005.99 1005.68 1005.46 1005.15 1004.67 1004.28 1003.97 1003.73 1003.70 1003.44 1003.16 1002.98 1002.86 1002.97 1003.05 1003.38 1003.38 1003.17
1017.09 1017.62 1016.85 1016.27 1016.03 1015.76 1015.40 1015.13 1014.76 1014.21 1013.59 1013.26 1013.17 1012.98 1012.48 1012.22 1011.87 1011.16 1010.28 1009.42 1008.56 1008.10 1007.73 1007.18 1006.44 1005.95 1005.58 1005.35 1005.04 1004.77 1004.44 1004.10 1003.82 1003.57 1003.08 1002.56 1002.30 1002.18 1002.28 1002.57 1002.69 1002.67 1002.53
1017.39 1017.34 1016.87 1016.50 1016.40 1016.28 1015.88 1015.61 1015.37 1015.03 1014.50 1013.86 1013.21 1012.88 1012.78 1012.62 1011.59 1010.62 1009.68 1009.12 1008.59 1007.97 1007.33 1006.63 1006.18 1005.77 1005.38 1005.06 1004.72 1004.33 1003.85 1003.51 1003.21 1002.87 1002.59 1002.29 1001.80 1001.65 1001.91 1002.02 1001.98 1002.06 1001.97
1017.54 1017.96 1017.48 1016.82 1016.59 1016.35 1016.18 1016.16 1015.92 1015.47 1014.88 1014.29 1013.64 1013.05 1012.64 1012.16 1011.31 1010.77 1010.33 1009.82 1009.24 1008.56 1007.76 1006.85 1006.13 1005.63 1005.19 1004.69 1004.19 1003.61 1003.19 1002.64 1002.05 1002.00 1001.64 1001.39 1001.22 1001.13 1001.22 1001.13 1001.12 1000.98 1001.02
1017.65 1017.55 1017.67 1016.87 1016.63 1016.47 1016.41 1016.17 1015.85 1015.42 1014.94 1014.49 1014.01 1013.58 1013.73 1013.06 1012.10 1011.50 1010.94 1010.29 1009.65 1008.95 1008.27 1007.44 1006.74 1006.21 1005.52 1004.91 1004.30 1003.88 1003.01 1002.27 1001.89 1001.68 1001.30 1000.91 1000.80 1000.74 1000.66 1000.42 1000.34 1000.10 1000.01
1017.66 1017.33 1017.05 1016.72 1016.63 1016.55 1016.48 1016.05 1015.73 1015.35 1015.14 1014.87 1014.35 1013.82 1013.55 1012.86 1012.33 1011.65 1010.96 1010.33 1009.67 1009.08 1008.37 1007.63 1006.74 1005.92 1005.20 1004.94 1004.44 1003.69 1003.27 1002.78 1002.15 1001.37 1000.70 1000.41 1000.34 1000.31 1000.16 999.90 999.69 999.53 999.34
1017.41 1017.05 1016.82 1016.66 1016.60 1016.50 1016.04 1015.83 1015.51 1015.28 1014.95 1014.61 1014.28 1013.88 1013.40 1012.90 1012.28 1011.59 1010.88 1010.11 1009.30 1008.52 1007.90 1007.32 1006.60 1005.75 1005.05 1004.46 1003.97 1003.69 1003.10 1002.49 1002.00 1001.44 1001.08 1000.87 1000.51 999.70 999.34 999.17 998.91 998.72 998.51
1017.07 1016.80 1016.58 1016.44 1016.28 1016.13 1015.73 1015.46 1015.09 1014.96 1014.71 1014.17 1013.92 1013.75 1013.37 1012.84 1012.21 1011.49 1010.74 1009.91 1009.06 1008.15 1007.39 1006.70 1006.02 1005.36 1004.69 1004.09 1003.53 1003.16 1002.64 1002.13 1001.85 1001.56 1001.39 1000.88 1000.53 999.99 999.46 998.69 998.17 997.87 997.64
1016.55 1016.27 1016.14 1015.96 1015.79 1015.56 1015.31 1014.95 1014.70 1014.43 1014.12 1013.70 1013.27 1013.15 1013.06 1012.60 1012.05 1011.44 1010.70 1009.84 1008.97 1007.97 1006.98 1006.18 1005.46 1004.79 1004.17 1003.56 1002.97 1002.43 1001.88 1001.69 1001.51 1001.31 1001.17 1000.65 1000.07 999.44 998.80 998.22 997.73 997.17 996.72
1015.84 1015.71 1015.53 1015.39 1015.21 1015.05 1014.86 1014.62 1014.34 1013.99 1013.56 1013.17 1012.75 1012.44 1012.31 1012.11 1011.70 1011.17 1010.54 1009.79 1008.90 1007.86 1006.88 1005.91 1005.06 1004.35 1003.60 1002.85 1002.15 1001.56 1001.18 1000.83 1000.66 1000.38 1000.39 999.97 999.28 998.47 997.91 997.35 996.90 996.43 995.80
Thickness
5769 5765 5761 5759 5757 5755 5754 5753 5750 5749 5749 5749 5749 5748 5746 5744 5742 5739 5740 5741 5741 5743 5747 5750 5753 5756 5757 5757 5760 5760 5760 5761 5759 5763 5768 5770 5768 5771 5774 5774 5775 5775 5776
5768 5765 5761 5757 5755 5754 5753 5754 5754 5753 5753 5751 5751 5750 5748 5746 5743 5742 5738 5738 5737 5738 5739 5746 5746 5752 5753 5752 5755 5754 5756 5760 5758 5756 5759 5765 5765 5771 5771 5772 5776 5778 5779
5766 5762 5760 5756 5755 5754 5753 5752 5752 5752 5751 5750 5748 5747 5747 5746 5745 5742 5739 5738 5736 5737 5739 5738 5737 5743 5742 5748 5747 5749 5753 5752 5753 5752 5754 5757 5765 5768 5768 5768 5771 5774 5777
5760 5758 5756 5755 5754 5753 5753 5751 5750 5749 5748 5747 5745 5745 5745 5745 5745 5744 5741 5741 5741 5739 5738 5738 5739 5737 5737 5743 5745 5744 5748 5750 5748 5748 5749 5750 5755 5761 5763 5762 5762 5769 5771
5752 5752 5754 5754 5754 5753 5751 5748 5745 5745 5744 5742 5740 5740 5740 5742 5742 5738 5737 5737 5737 5736 5737 5738 5738 5737 5738 5740 5742 5741 5742 5744 5743 5746 5747 5749 5753 5753 5756 5759 5759 5762 5766
5749 5747 5745 5744 5746 5747 5746 5746 5742 5741 5740 5740 5739 5736 5733 5736 5734 5733 5732 5734 5734 5733 5735 5737 5739 5738 5737 5738 5737 5738 5741 5741 5741 5741 5740 5740 5744 5748 5752 5752 5754 5753 5751
5743 5742 5741 5739 5738 5741 5739 5736 5733 5730 5729 5730 5730 5731 5729 5729 5727 5727 5727 5730 5729 5729 5730 5733 5736 5739 5736 5737 5736 5735 5736 5738 5740 5741 5738 5738 5740 5744 5745 5746 5750 5750 5752
5740 5738 5740 5741 5736 5736 5734 5730 5727 5725 5722 5720 5721 5720 5721 5721 5718 5716 5719 5723 5724 5727 5729 5730 5729 5731 5734 5734 5735 5736 5736 5739 5738 5737 5736 5738 5740 5740 5741 5741 5742 5744 5749
5737 5736 5734 5732 5730 5726 5722 5719 5717 5715 5714 5712 5711 5711 5711 5710 5709 5708 5709 5714 5717 5720 5725 5726 5728 5729 5730 5729 5730 5731 5732 5735 5738 5736 5734 5733 5734 5735 5734 5734 5733 5733 5741
5731 5729 5728 5724 5719 5716 5712 5709 5707 5706 5702 5702 5703 5701 5703 5701 5700 5698 5700 5706 5708 5712 5716 5720 5721 5720 5722 5721 5722 5725 5725 5727 5731 5730 5730 5728 5727 5731 5730 5732 5735 5731 5731
5720 5717 5714 5710 5705 5703 5701 5700 5697 5695 5694 5690 5693 5692 5692 5694 5693 5688 5690 5692 5696 5699 5705 5711 5716 5712 5710 5711 5711 5717 5718 5722 5720 5721 5723 5725 5727 5729 5731 5729 5732 5732 5730
5705 5702 5699 5694 5693 5692 5687 5686 5683 5684 5683 5684 5683 5683 5687 5686 5681 5682 5680 5679 5681 5687 5692 5700 5703 5698 5699 5702 5703 5708 5708 5707 5711 5712 5714 5718 5722 5724 5726 5727 5728 5730 5733
5691 5688 5685 5683 5681 5676 5675 5674 5676 5673 5671 5672 5672 5673 5674 5675 5674 5673 5674 5670 5671 5676 5683 5686 5686 5689 5691 5696 5696 5696 5696 5703 5707 5707 5710 5714 5717 5720 5719 5720 5722 5724 5725
5681 5678 5675 5671 5663 5666 5667 5664 5661 5661 5659 5657 5656 5657 5661 5664 5667 5668 5666 5663 5664 5668 5673 5679 5680 5682 5684 5687 5688 5693 5693 5698 5700 5704 5708 5710 5713 5710 5711 5715 5716 5717 5717
5665 5665 5663 5661 5658 5661 5654 5648 5645 5644 5639 5639 5641 5643 5646 5650 5649 5643 5642 5646 5651 5653 5651 5666 5674 5679 5683 5685 5687 5688 5690 5689 5690 5696 5699 5700 5701 5704 5706 5709 5705 5705 5707
5658 5654 5649 5648 5647 5643 5641 5639 5634 5629 5627 5625 5625 5626 5633 5634 5634 5632 5631 5634 5637 5639 5650 5658 5663 5667 5670 5673 5674 5677 5680 5681 5684 5688 5692 5695 5696 5698 5701 5702 5701 5700 5706
5640 5637 5636 5631 5629 5628 5627 5625 5627 5627 5623 5619 5617 5616 5617 5620 5619 5618 5622 5626 5630 5629 5643 5650 5649 5649 5652 5654 5657 5663 5666 5671 5674 5677 5681 5686 5690 5692 5692 5693 5692 5694 5696
5626 5615 5619 5619 5617 5615 5615 5613 5612 5613 5614 5613 5608 5604 5604 5601 5601 5605 5609 5615 5625 5625 5628 5628 5634 5637 5639 5640 5644 5647 5650 5654 5657 5661 5668 5676 5681 5684 5684 5683 5684 5685 5687
5612 5608 5607 5606 5603 5600 5599 5597 5594 5591 5591 5592 5594 5592 5589 5585 5588 5592 5597 5604 5608 5611 5615 5619 5621 5624 5626 5629 5631 5635 5640 5643 5647 5652 5655 5661 5668 5671 5671 5674 5676 5675 5679
5601 5592 5592 5592 5589 5587 5583 5577 5573 5572 5572 5573 5574 5575 5574 5573 5575 5575 5574 5575 5579 5583 5590 5598 5604 5608 5611 5614 5619 5625 5630 5635 5642 5643 5649 5653 5657 5660 5661 5664 5667 5671 5674
5589 5585 5578 5580 5577 5573 5567 5563 5561 5559 5557 5555 5553 5551 5542 5545 5549 5550 5550 5552 5554 5558 5562 5568 5573 5577 5584 5590 5596 5601 5610 5619 5623 5627 5633 5639 5642 5645 5649 5655 5658 5663 5666
5579 5576 5573 5570 5565 5559 5554 5553 5549 5546 5540 5536 5534 5533 5528 5529 5528 5529 5530 5532 5535 5538 5542 5547 5553 5559 5566 5569 5575 5583 5588 5593 5600 5610 5619 5625 5628 5631 5635 5641 5646 5651 5655
5571 5568 5564 5559 5554 5548 5548 5544 5540 5535 5532 5527 5521 5516 5514 5511 5511 5512 5513 5516 5520 5526 5530 5533 5538 5544 5551 5558 5563 5567 5573 5580 5587 5594 5599 5602 5607 5619 5626 5630 5636 5641 5646
5562 5559 5556 5552 5549 5545 5543 5539 5536 5528 5524 5521 5512 5502 5497 5495 5495 5496 5500 5505 5510 5515 5520 5525 5529 5535 5541 5548 5555 5559 5565 5570 5574 5578 5582 5587 5590 5597 5605 5617 5625 5631 5637
5558 5556 5553 5550 5547 5543 5540 5537 5532 5526 5520 5514 5508 5498 5488 5486 5486 5489 5493 5497 5502 5507 5513 5519 5524 5530 5536 5543 5549 5555 5560 5562 5564 5566 5569 5575 5582 5589 5597 5605 5613 5621 5629
5557 5554 5552 5549 5546 5542 5537 5532 5527 5522 5517 5511 5504 5496 5489 5484 5484 5486 5489 5492 5497 5504 5509 5516 5522 5528 5534 5541 5547 5553 5556 5559 5561 5563 5564 5569 5576 5584 5591 5598 5605 5613 5622